Vorticity
5 5 5 6 6 6 7 7 7 7 6 5 5 4 3 3 4 5 6 5 6 9
5 5 4 4 5 5 6 6 5 5 5 4 4 3 4 4 4 3 5 6 4 5
4 4 3 3 4 4 4 4 5 5 6 6 6 5 5 3 3 2 3 4 5 6
4 4 6 8 11 17 16 20 19 14 9 6 4 4 6 7 7 4 3 2 3 4
20 30 34 40 38 36 40 36 38 44 45 47 43 34 30 28 13 5 6 6 4 3
40 38 36 32 29 29 30 31 29 29 33 36 42 48 51 45 43 45 28 15 9 6
21 17 15 13 12 10 9 10 10 12 12 12 12 15 19 28 36 43 44 43 35 24
9 9 9 10 11 11 10 9 10 9 6 5 7 6 5 9 12 19 33 38 35 35
13 24 37 38 38 41 44 46 45 34 15 5 6 6 6 7 9 11 14 23 37 37
19 21 20 17 17 19 23 27 28 42 51 55 39 28 25 23 20 13 9 11 18 30
22 13 13 12 13 14 19 17 23 25 23 23 22 23 24 27 25 25 14 7 9 16
9 11 13 17 18 17 15 17 15 32 22 32 12 19 23 29 43 32 29 13 15 15
10 10 31 23 24 10 14 14 15 9 37 26 32 11 21 21 22 28 32 21 17 16
17 26 21 18 16 19 22 19 25 21 13 32 41 14 17 21 10 22 30 36 18 24
Height
5606 5602 5600 5597 5596 5596 5596 5597 5596 5597 5598 5598 5599 5601 5602 5607 5616 5623 5629 5636 5642 5647
5577 5572 5568 5565 5563 5562 5562 5563 5564 5566 5569 5570 5572 5573 5575 5580 5584 5588 5600 5610 5617 5623
5545 5538 5532 5529 5526 5524 5524 5523 5524 5526 5530 5534 5537 5540 5543 5550 5555 5558 5566 5577 5588 5598
5508 5500 5493 5487 5482 5477 5476 5474 5475 5476 5481 5487 5494 5499 5503 5513 5520 5526 5534 5542 5552 5568
5475 5465 5458 5451 5445 5440 5436 5434 5432 5432 5434 5440 5444 5449 5457 5467 5476 5487 5499 5509 5516 5533
5443 5435 5429 5423 5418 5414 5409 5408 5405 5403 5404 5405 5407 5410 5416 5422 5430 5441 5456 5470 5481 5497
5421 5414 5408 5402 5397 5392 5388 5386 5384 5381 5382 5383 5384 5386 5389 5392 5396 5403 5414 5427 5440 5460
5405 5396 5388 5380 5373 5367 5363 5359 5357 5357 5358 5360 5361 5366 5368 5370 5374 5378 5385 5393 5404 5420
5387 5378 5368 5358 5349 5341 5334 5329 5326 5328 5329 5332 5336 5342 5343 5346 5351 5357 5365 5372 5379 5390
5371 5364 5355 5345 5337 5328 5319 5312 5306 5301 5298 5302 5309 5315 5317 5321 5325 5335 5345 5354 5362 5370
5359 5351 5343 5334 5325 5316 5308 5300 5294 5289 5285 5285 5290 5292 5295 5299 5302 5312 5325 5336 5346 5354
5349 5341 5332 5323 5315 5307 5299 5292 5284 5278 5274 5272 5276 5276 5278 5280 5284 5294 5309 5321 5332 5341
5340 5331 5323 5314 5307 5299 5290 5284 5277 5271 5264 5261 5262 5265 5267 5270 5275 5284 5296 5307 5319 5330
5333 5323 5315 5309 5300 5292 5284 5277 5270 5265 5259 5254 5252 5256 5260 5265 5272 5279 5287 5298 5312 5323